Location: Walton
(43.6794°N, 81.3017°W)
Time: 02:26:42
(UTC+00:00)

Cosmos 1428 Rocket - Pass Details

Date: 09 December 2025
Orbit: 947 x 987 km, 82.9° (Epoch: 12 January)

Event Time Altitude Azimuth Distance (km) Brightness Sun altitude
Rises 10:43:03 0° 195° (SSW) 3,639 7.5 -21.6°
Reaches altitude 10° 10:45:33 10° 198° (SSW) 2,702 6.8 -21.2°
Maximum altitude 10:51:42 66° 280° (W) 1,063 4.4 -20.1°
Drops below altitude 10° 10:57:58 10° 3° (N) 2,745 6.7 -19.0°
Sets 11:00:32 0° 6° (N) 3,701 7.5 -18.5°
